{"data":{"norad_id":63670,"intl_designator":"2025-085G","name":"STARLINK-11599 [DTC]","alt_names":[],"object_type":"PAYLOAD","status":"ACTIVE","operator":null,"country":"US","launch_date":"2025-04-28","launch_site_code":"AFETR","launch_vehicle":null,"mission":null,"orbit_class":"UNKNOWN","rcs_meters":null,"size_class":null,"mass_kg":null,"dimensions":null,"purposes":["comms"],"wikipedia_slug":null,"has_3d_model":false,"image_url":null,"decayed_at":null,"tle_current":{"epoch":"2026-09-20T18:52:19.917696Z","epoch_age_seconds":127911,"freshness":"FRESH","line1":"1 63670U 25085G   26263.78634164  .00212458  00000+0  16158-2 0  9994","line2":"2 63670  43.0008 182.6020 0001974 252.6078 107.4574 15.70861223 80921","mean_motion":15.70861223,"eccentricity":0.0001974,"inclination_deg":43.0008,"raan_deg":182.602,"arg_perigee_deg":252.6078,"mean_anomaly_deg":107.4574,"bstar":0.0016158,"rev_number":8092,"period_min":91.669459969858,"perigee_km":355.10499855062,"apogee_km":357.7638073405,"semimajor_km":6734.5714029456,"source":"CELESTRAK","updated_at":"2026-09-21T09:00:35.058058Z"}}}